Београд, метеограме

Београд: време по сату
Среда, 21 Априла
Време Падавине Температура Осећа се Притисак Влажност Ветар
22:00 0 мм +9.5° +9.4° 755.000 мм.ж.с 71% 1 м/с, Ј
23:00 0.01 мм +9.2° +9.1° 755.000 мм.ж.с 71% 1 м/с, Ј
Четвтак, 22 Априла
Време Падавине Температура Осећа се Притисак Влажност Ветар
00:00 0.01 мм +9° +8.9° 755.000 мм.ж.с 72% 2 м/с, Ј
01:00 0.01 мм +8.8° +8.7° 755.000 мм.ж.с 73% 2 м/с, Ј
02:00 0.02 мм +8.5° +8.5° 755.000 мм.ж.с 75% 1 м/с, Ј
03:00 0.02 мм +8.2° +8.1° 755.000 мм.ж.с 76% 1 м/с, Ј
04:00 0.02 мм +7.8° +7.8° 755.000 мм.ж.с 78% 1 м/с, Ј
05:00 0 мм +8.9° +8.9° 755.000 мм.ж.с 74% 1 м/с, Ј
06:00 0 мм +10° +9.9° 756.000 мм.ж.с 71% 1 м/с, Ј
07:00 0 мм +11.1° +11° 756.000 мм.ж.с 68% 1 м/с, Ј
08:00 0 мм +12.8° +12.6° 756.000 мм.ж.с 62% 1 м/с, Ј
09:00 0 мм +14.5° +14.2° 756.000 мм.ж.с 56% 1 м/с, ЈЗ
10:00 0 мм +16.3° +15.8° 756.000 мм.ж.с 50% 1 м/с, ЈЗ
11:00 0 мм +16.9° +16.4° 756.000 мм.ж.с 47% 2 м/с, ЈЗ
12:00 0 мм +17.6° +16.9° 755.000 мм.ж.с 43% 2 м/с, ЈЗ
13:00 0 мм +18.3° +17.5° 755.000 мм.ж.с 40% 2 м/с, ЈЗ
14:00 0 мм +18.1° +17.3° 755.000 мм.ж.с 40% 2 м/с, З
15:00 0 мм +17.9° +17.1° 754.000 мм.ж.с 41% 2 м/с, З
16:00 0 мм +17.7° +17° 754.000 мм.ж.с 42% 2 м/с, З
17:00 0 мм +16.2° +15.6° 754.000 мм.ж.с 46% 2 м/с, З
18:00 0 мм +14.7° +14.2° 754.000 мм.ж.с 50% 1 м/с, З
19:00 0 мм +13.2° +12.7° 754.000 мм.ж.с 53% 1 м/с, ЈЗ
20:00 0 мм +12.8° +12.4° 755.000 мм.ж.с 56% 1 м/с, ЈЗ
21:00 0 мм +12.5° +12.1° 755.000 мм.ж.с 59% 2 м/с, ЈЗ
22:00 0 мм +12.1° +11.8° 755.000 мм.ж.с 61% 2 м/с, ЈЗ
23:00 0.01 мм +11.3° +11.3° 755.000 мм.ж.с 68% 3 м/с, СЗ
Петак, 23 Априла
Време Падавине Температура Осећа се Притисак Влажност Ветар
00:00 0.01 мм +10.6° +10.7° 756.000 мм.ж.с 74% 4 м/с, С
01:00 0.01 мм +9.9° +10.1° 756.000 мм.ж.с 81% 5 м/с, С
02:00 0.08 мм +9.2° +9.4° 756.000 мм.ж.с 81% 4 м/с, С
03:00 0.08 мм +8.6° +8.7° 757.000 мм.ж.с 81% 3 м/с, С
04:00 0.08 мм +7.9° +8° 757.000 мм.ж.с 82% 3 м/с, С
05:00 0.07 мм +8.3° +8.4° 758.000 мм.ж.с 79% 3 м/с, СЗ
06:00 0.07 мм +8.8° +8.8° 758.000 мм.ж.с 76% 3 м/с, СЗ
07:00 0.07 мм +9.2° +9.1° 759.000 мм.ж.с 73% 3 м/с, СЗ
08:00 0 мм +10.5° +10.3° 759.000 мм.ж.с 63% 4 м/с, СЗ
09:00 0 мм +11.9° +11.4° 759.000 мм.ж.с 54% 4 м/с, СЗ
10:00 0 мм +13.3° +12.5° 759.000 мм.ж.с 44% 5 м/с, СЗ
11:00 0 мм +13.9° +13° 759.000 мм.ж.с 43% 5 м/с, СЗ
12:00 0 мм +14.4° +13.6° 759.000 мм.ж.с 41% 5 м/с, СЗ
13:00 0 мм +15° +14.1° 758.000 мм.ж.с 40% 5 м/с, СЗ
14:00 0 мм +14.8° +13.9° 758.000 мм.ж.с 41% 5 м/с, СЗ
15:00 0 мм +14.6° +13.7° 758.000 мм.ж.с 41% 5 м/с, СЗ
16:00 0 мм +14.3° +13.5° 758.000 мм.ж.с 42% 5 м/с, СЗ
17:00 0 мм +12.7° +12° 758.000 мм.ж.с 48% 4 м/с, СЗ
18:00 0 мм +11.1° +10.6° 759.000 мм.ж.с 54% 3 м/с, СЗ
19:00 0 мм +9.5° +9° 759.000 мм.ж.с 59% 2 м/с, СЗ
20:00 0 мм +8.9° +8.5° 759.000 мм.ж.с 61% 2 м/с, СЗ
21:00 0 мм +8.3° +7.9° 760.000 мм.ж.с 62% 2 м/с, СЗ

Такође

Meteograms hourly weather Мапе времена Преглед времена
Meteograms hourly weather Мапе времена Преглед времена
 
Време у Србији:
О проjекту
© meteoprog.rs 2003-2021.
Meteoprog.ua - погода в Украине 0.0467
sitemap